| time (UTC) | temp F | wind direction | speed MPH | gust MPH | rain 1hr in | rain 24hr in | rain mn in | humidity % | barometer mb |
| 20260505010151 | 54 | 148 | 1.0 | 6.0 | 0.00 | 0.00 | 0.00 | 76 | 1012.1 |
| 20260505005140 | 54 | 246 | 1.0 | 3.0 | 0.00 | 0.00 | 0.00 | 75 | 1011.9 |
| 20260505004142 | 55 | 203 | 1.0 | 4.0 | 0.00 | 0.00 | 0.00 | 74 | 1011.8 |
| 20260505003138 | 55 | 212 | 1.0 | 4.0 | 0.00 | 0.00 | 0.00 | 73 | 1011.5 |
| 20260505002137 | 55 | 197 | 1.0 | 4.0 | 0.00 | 0.00 | 0.00 | 72 | 1011.4 |
| 20260505001138 | 55 | 247 | 1.0 | 6.0 | 0.00 | 0.00 | 0.00 | 72 | 1011.2 |
| 20260505000138 | 56 | 195 | 1.0 | 3.0 | 0.00 | 0.00 | 0.00 | 71 | 1011.1 |
| 20260504235137 | 56 | 141 | 1.0 | 5.0 | 0.00 | 0.00 | 0.00 | 71 | 1011.2 |
| 20260504234137 | 56 | 210 | 2.0 | 5.0 | 0.00 | 0.00 | 0.00 | 69 | 1010.9 |
| 20260504233638 | 57 | 174 | 1.0 | 6.0 | 0.00 | 0.00 | 0.00 | 68 | 1010.8 |
| 20260504232138 | 57 | 190 | 2.0 | 10.0 | 0.00 | 0.00 | 0.00 | 67 | 1010.8 |
| 20260504231136 | 57 | 229 | 2.0 | 8.0 | 0.00 | 0.00 | 0.00 | 65 | 1010.7 |
| 20260504230135 | 58 | 217 | 2.0 | 6.0 | 0.00 | 0.00 | 0.00 | 64 | 1010.5 |
| 20260504225137 | 58 | 195 | 2.0 | 8.0 | 0.00 | 0.00 | 0.00 | 63 | 1010.4 |
| 20260504224136 | 59 | 235 | 3.0 | 7.0 | 0.00 | 0.00 | 0.00 | 61 | 1010.3 |
| 20260504223136 | 60 | 174 | 2.0 | 7.0 | 0.00 | 0.00 | 0.00 | 59 | 1010.3 |
| 20260504222135 | 61 | 155 | 2.0 | 7.0 | 0.00 | 0.00 | 0.00 | 56 | 1010.3 |
| 20260504221134 | 61 | 203 | 3.0 | 8.0 | 0.00 | 0.00 | 0.00 | 55 | 1010.2 |
| 20260504220133 | 62 | 215 | 2.0 | 8.0 | 0.00 | 0.00 | 0.00 | 54 | 1010.2 |
| 20260504215134 | 62 | 214 | 3.0 | 8.0 | 0.00 | 0.00 | 0.00 | 54 | 1010.2 |
| 20260504214137 | 63 | 186 | 2.0 | 8.0 | 0.00 | 0.00 | 0.00 | 52 | 1010.3 |
| 20260504213133 | 64 | 212 | 2.0 | 8.0 | 0.00 | 0.00 | 0.00 | 52 | 1010.2 |
| 20260504212134 | 64 | 134 | 4.0 | 8.0 | 0.00 | 0.00 | 0.00 | 51 | 1010.1 |
| 20260504211141 | 64 | 229 | 3.0 | 10.0 | 0.00 | 0.00 | 0.00 | 51 | 1010.1 |
| 20260504210128 | 65 | 224 | 4.0 | 8.0 | 0.00 | 0.00 | 0.00 | 49 | 1010.0 |
| 20260504205630 | 65 | 208 | 3.0 | 9.0 | 0.00 | 0.00 | 0.00 | 48 | 1010.0 |
| 20260504204129 | 65 | 173 | 4.0 | 12.0 | 0.00 | 0.00 | 0.00 | 47 | 1009.8 |
| 20260504203142 | 67 | 221 | 3.0 | 11.0 | 0.00 | 0.00 | 0.00 | 44 | 1009.8 |
| 20260504202130 | 66 | 203 | 4.0 | 11.0 | 0.00 | 0.00 | 0.00 | 43 | 1009.8 |
| 20260504201128 | 67 | 229 | 3.0 | 9.0 | 0.00 | 0.00 | 0.00 | 41 | 1009.8 |
| 20260504200129 | 67 | 217 | 5.0 | 14.0 | 0.00 | 0.00 | 0.00 | 40 | 1009.7 |
| 20260504195130 | 67 | 192 | 4.0 | 11.0 | 0.00 | 0.00 | 0.00 | 38 | 1009.8 |
| 20260504194131 | 67 | 172 | 4.0 | 11.0 | 0.00 | 0.00 | 0.00 | 39 | 1010.0 |
| 20260504193132 | 67 | 186 | 5.0 | 11.0 | 0.00 | 0.00 | 0.00 | 37 | 1009.9 |
| 20260504192131 | 67 | 248 | 5.0 | 13.0 | 0.00 | 0.00 | 0.00 | 37 | 1009.8 |
| 20260504191129 | 67 | 163 | 6.0 | 12.0 | 0.00 | 0.00 | 0.00 | 37 | 1009.8 |
| 20260504190129 | 67 | 267 | 5.0 | 17.0 | 0.00 | 0.00 | 0.00 | 37 | 1009.9 |
| 20260504185129 | 67 | 167 | 5.0 | 15.0 | 0.00 | 0.00 | 0.00 | 38 | 1010.2 |
| 20260504184630 | 68 | 253 | 4.0 | 12.0 | 0.00 | 0.00 | 0.00 | 39 | 1010.1 |
| 20260504183129 | 68 | 256 | 3.0 | 14.0 | 0.00 | 0.00 | 0.00 | 41 | 1010.3 |
| 20260504182128 | 68 | 267 | 4.0 | 10.0 | 0.00 | 0.00 | 0.00 | 40 | 1009.9 |
| 20260504181128 | 68 | 225 | 4.0 | 11.0 | 0.00 | 0.00 | 0.00 | 40 | 1010.0 |
| 20260504180127 | 68 | 271 | 4.0 | 11.0 | 0.00 | 0.00 | 0.00 | 41 | 1009.9 |
| 20260504175130 | 68 | 204 | 4.0 | 12.0 | 0.00 | 0.00 | 0.00 | 39 | 1009.7 |
| 20260504174126 | 68 | 233 | 4.0 | 10.0 | 0.00 | 0.00 | 0.00 | 38 | 1009.8 |
| 20260504173126 | 68 | 204 | 4.0 | 11.0 | 0.00 | 0.00 | 0.00 | 37 | 1009.8 |
| 20260504172628 | 68 | 237 | 4.0 | 13.0 | 0.00 | 0.00 | 0.00 | 37 | 1010.0 |
| 20260504171130 | 69 | 221 | 4.0 | 8.0 | 0.00 | 0.00 | 0.00 | 36 | 1010.0 |
| 20260504170126 | 69 | 242 | 3.0 | 11.0 | 0.00 | 0.00 | 0.00 | 37 | 1010.0 |
| 20260504160122 | 68 | 128 | 2.0 | 7.0 | 0.00 | 0.00 | 0.00 | 39 | 1010.7 |
| 20260504150619 | 68 | 248 | 2.0 | 8.0 | 0.00 | 0.00 | 0.00 | 40 | 1011.0 |
| 20260504141119 | 65 | 200 | 2.0 | 9.0 | 0.00 | 0.00 | 0.00 | 41 | 1011.6 |
| 20260504140117 | 65 | 161 | 2.0 | 5.0 | 0.00 | 0.00 | 0.00 | 43 | 1011.7 |
| 20260504130121 | 60 | 239 | 1.0 | 6.0 | 0.00 | 0.00 | 0.00 | 50 | 1012.1 |
| 20260504130115 | 61 | 203 | 0.0 | 2.0 | 0.00 | 0.00 | 0.00 | 49 | 1012.0 |
| 20260504120124 | 54 | 283 | 0.0 | 4.0 | 0.00 | 0.00 | 0.00 | 63 | 1012.2 |
| 20260504090107 | 44 | 280 | 0.0 | 0.0 | 0.00 | 0.00 | 0.00 | 79 | 1011.9 |
| 20260504081552 | 43 | 280 | 0.0 | 0.0 | 0.00 | 0.00 | 0.00 | 79 | 1011.8 |
| 20260504080604 | 42 | 280 | 0.0 | 0.0 | 0.00 | 0.01 | 0.00 | 80 | 1011.7 |
| 20260504045040 | 40 | 278 | 0.0 | 1.0 | 0.00 | 0.04 | 0.00 | 75 | 1011.3 |
| 20260504044039 | 39 | 281 | 0.0 | 0.0 | 0.00 | 0.04 | 0.00 | 76 | 1011.5 |
| 20260504043540 | 39 | 287 | 0.0 | 0.0 | 0.00 | 0.04 | 0.00 | 78 | 1011.4 |
| 20260504042045 | 39 | 288 | 0.0 | 0.0 | 0.00 | 0.04 | 0.00 | 78 | 1011.4 |
| 20260504042039 | 39 | 288 | 0.0 | 0.0 | 0.00 | 0.04 | 0.00 | 77 | 1011.4 |
| 20260504040054 | 38 | 288 | 0.0 | 0.0 | 0.00 | 0.05 | 0.00 | 78 | 1011.2 |
| 20260504035039 | 38 | 288 | 0.0 | 0.0 | 0.00 | 0.05 | 0.05 | 78 | 1011.1 |
| 20260504034038 | 38 | 288 | 0.0 | 0.0 | 0.00 | 0.06 | 0.05 | 78 | 1011.1 |
| 20260504033036 | 39 | 288 | 0.0 | 0.0 | 0.00 | 0.06 | 0.05 | 78 | 1011.0 |
| 20260504032036 | 39 | 288 | 0.0 | 0.0 | 0.00 | 0.07 | 0.05 | 77 | 1011.0 |
| 20260504031037 | 39 | 288 | 0.0 | 0.0 | 0.00 | 0.07 | 0.05 | 77 | 1011.0 |
| 20260504030032 | 39 | 287 | 0.0 | 0.0 | 0.00 | 0.07 | 0.05 | 76 | 1011.0 |
| 20260504025535 | 40 | 288 | 0.0 | 0.0 | 0.00 | 0.08 | 0.05 | 76 | 1011.0 |
| 20260504024033 | 40 | 286 | 0.0 | 0.0 | 0.00 | 0.08 | 0.05 | 75 | 1011.0 |
| 20260504023534 | 40 | 286 | 0.0 | 0.0 | 0.00 | 0.08 | 0.05 | 75 | 1010.9 |
| 20260504022033 | 41 | 287 | 0.0 | 0.0 | 0.00 | 0.09 | 0.05 | 75 | 1011.0 |
| 20260504021033 | 41 | 287 | 0.0 | 0.0 | 0.00 | 0.09 | 0.05 | 74 | 1010.9 |
| 20260504020031 | 42 | 287 | 0.0 | 0.0 | 0.00 | 0.09 | 0.05 | 71 | 1010.7 |
| 20260504015533 | 42 | 286 | 0.0 | 0.0 | 0.00 | 0.11 | 0.05 | 69 | 1010.7 |
| 20260504014030 | 43 | 286 | 0.0 | 0.0 | 0.00 | 0.12 | 0.05 | 68 | 1010.6 |
| 20260504013528 | 43 | 286 | 0.0 | 0.0 | 0.00 | 0.14 | 0.05 | 67 | 1010.5 |
| 20260504012029 | 44 | 287 | 0.0 | 0.0 | 0.00 | 0.14 | 0.05 | 62 | 1010.4 |